Location: Del Amo
(33.8464°N, 118.2104°W)
Time: 01:08:12
(UTC+00:00)

SR - Pass Details

Date: 23 September 2024
Orbit: 578 x 855 km, 66.7° (Epoch: 06 October)

Event Time Altitude Azimuth Distance (km) Brightness Sun altitude
Rises 17:56:12 0° 186° (S) 2,833 ? 47.2°
Reaches altitude 10° 17:58:36 10° 177° (S) 1,910 ? 47.6°
Maximum altitude 18:02:28 35° 111° (ESE) 946 ? 48.1°
Drops below altitude 10° 18:06:18 10° 45° (NE) 1,891 ? 48.6°
Sets 18:08:40 0° 37° (NE) 2,801 ? 48.9°
